TimeEST,TemperatureF,Dew PointF,Humidity,Sea Level PressureIn,VisibilityMPH,Wind Direction,Wind SpeedMPH,Gust SpeedMPH,PrecipitationIn,Events,Conditions,WindDirDegrees,DateUTC
12:54 AM,46.0,26.1,46,30.45,-9999.0,North,-9999.0,-,N/A,,Unknown,0,2012-11-17 05:54:00
1:54 AM,46.0,26.1,46,30.47,-9999.0,North,-9999.0,-,N/A,,Unknown,0,2012-11-17 06:54:00
2:54 AM,45.0,27.0,49,30.48,-9999.0,North,-9999.0,-,N/A,,Unknown,0,2012-11-17 07:54:00
3:54 AM,45.0,27.0,49,30.48,-9999.0,North,-9999.0,-,N/A,,Unknown,0,2012-11-17 08:54:00
4:54 AM,44.1,27.0,51,30.51,-9999.0,North,-9999.0,-,N/A,,Unknown,0,2012-11-17 09:54:00
5:54 AM,44.1,27.0,51,30.51,-9999.0,North,-9999.0,-,N/A,,Unknown,0,2012-11-17 10:54:00
6:54 AM,43.0,28.0,56,30.53,-9999.0,North,-9999.0,-,N/A,,Unknown,0,2012-11-17 11:54:00
7:54 AM,44.1,27.0,51,30.56,-9999.0,North,-9999.0,-,N/A,,Unknown,0,2012-11-17 12:54:00
8:54 AM,46.9,27.0,46,30.58,-9999.0,North,-9999.0,-,N/A,,Unknown,0,2012-11-17 13:54:00
9:54 AM,48.9,27.0,43,30.59,-9999.0,North,-9999.0,-,N/A,,Unknown,0,2012-11-17 14:54:00
10:54 AM,51.1,27.0,39,30.59,-9999.0,North,-9999.0,-,N/A,,Unknown,0,2012-11-17 15:54:00
11:54 AM,54.0,25.0,33,30.57,-9999.0,North,-9999.0,-,N/A,,Unknown,0,2012-11-17 16:54:00
12:54 PM,57.0,24.1,28,30.56,-9999.0,North,-9999.0,-,N/A,,Unknown,0,2012-11-17 17:54:00
1:54 PM,57.0,25.0,29,30.55,-9999.0,North,-9999.0,-,N/A,,Unknown,0,2012-11-17 18:54:00
2:54 PM,55.9,28.0,34,30.56,-9999.0,North,-9999.0,-,N/A,,Unknown,0,2012-11-17 19:54:00
3:54 PM,54.0,26.1,34,30.57,-9999.0,North,-9999.0,-,N/A,,Unknown,0,2012-11-17 20:54:00
4:54 PM,53.1,25.0,34,30.57,-9999.0,North,-9999.0,-,N/A,,Unknown,0,2012-11-17 21:54:00
5:54 PM,54.0,27.0,35,30.57,-9999.0,North,-9999.0,-,N/A,,Unknown,0,2012-11-17 22:54:00
6:54 PM,52.0,28.0,40,30.58,-9999.0,North,-9999.0,-,N/A,,Unknown,0,2012-11-17 23:54:00
7:54 PM,51.1,30.0,44,30.59,-9999.0,North,-9999.0,-,N/A,,Unknown,0,2012-11-18 00:54:00
8:54 PM,50.0,35.1,57,30.60,-9999.0,North,-9999.0,-,N/A,,Unknown,0,2012-11-18 01:54:00
9:54 PM,48.9,36.0,61,30.60,-9999.0,North,-9999.0,-,N/A,,Unknown,0,2012-11-18 02:54:00
10:54 PM,48.0,37.9,68,30.61,-9999.0,North,-9999.0,-,N/A,,Unknown,0,2012-11-18 03:54:00
11:54 PM,48.0,37.9,68,30.60,-9999.0,North,-9999.0,-,N/A,,Unknown,0,2012-11-18 04:54:00